Voltar ao catálogo

TRANSAT DEB

AtivoPO
NORAD 57001·DEBRIS·🇺🇸 United States

Lançado Oct 28, 1977 de Vandenberg Space Force Base

Loading…

Próximas Passagens (próximas 24 horas)

TLE

AtualizadoSource: Space-Track

Época: Sep 14, 2026, 17:13 UTC

1 57001U 77106D   26257.71737996  .00000443  00000-0  66169-3 0  9997
2 57001  89.6441  68.8289 0026312 109.7905 250.6087 13.51683143304542

Acompanhe TRANSAT DEB em tempo real com AllMySat

Download on the App Store